Flag for Brazil Weather past 2 weeks in Rio de Janeiro, Rio de Janeiro, Brazil

Now
68 °F

Passing clouds.


Feels Like: 68 °F
Forecast: 62 / 79 °F
Wind: 2 mph from Northeast

Location: Rio De Janeiro Airport

Current Time: Aug 21, 2014 at 7:52:29 AM

Latest Report: Aug 21, 2014 at 7:00 AM


Visibility: 6 mi

Pressure: 30.18 "Hg

Humidity: 94%

Dew point: 66 °F

Location of Rio de JaneiroLocation

Historic Weather in Rio de Janeiro — Graph

°F

Rio de Janeiro temperature yesterday

Maximum temperature yesterday: 75 °F (at 1:00 PM)
Minimum temperature yesterday: 68 °F (at 6:00 AM)
Average temperature yesterday: 72 °F

Past Weeks' High & Low Weather Summary

 TemperatureHumidityPressure
High84 °F (Aug 12, 4:00 PM)100% (Aug 14, 12:00 PM)30.39 "Hg (Aug 14, 12:00 PM)
Low61 °F (Aug 7, 6:00 AM)47% (Aug 7, 12:00 PM)29.92 "Hg (Aug 12, 3:00 PM)
Average71 °F76%30.18 "Hg
* Reported Aug 6 6:00 AM — Aug 21 6:00 AM, Rio de Janeiro, Weather by CustomWeather, © 2014

Note: Actual official high and low records may vary slightly from our data, if they occured in-between our weather recording intervals... More about our weather records

Advertising

Rio de Janeiro weather history for previous 24 hours

 ConditionsComfort  
Time TempWeatherWind HumidityBarometerVisibility
6:00 AM
Aug 21
66 °FScattered clouds.2 mph94%30.18 "Hg6 mi
11:00 PM
Aug 20
70 °FPassing clouds.3 mph88%30.24 "HgN/A
10:00 PM70 °FPassing clouds.3 mph88%30.24 "HgN/A
9:00 PM70 °FPassing clouds.5 mph88%30.24 "HgN/A
8:00 PM70 °FPassing clouds.9 mph88%30.21 "HgN/A
7:00 PM70 °FPassing clouds.12 mph83%30.21 "HgN/A
6:00 PM70 °FPassing clouds.14 mph83%30.18 "HgN/A
5:00 PM72 °FPassing clouds.13 mph83%30.18 "HgN/A
4:00 PM73 °FPassing clouds.14 mph78%30.15 "HgN/A
3:00 PM75 °FPassing clouds.14 mph69%30.15 "HgN/A
2:00 PM75 °FPassing clouds.12 mph69%30.15 "HgN/A
1:00 PM75 °FPassing clouds.9 mph74%30.18 "HgN/A
12:00 PM73 °FPassing clouds.10 mph78%30.21 "HgN/A
11:00 AM73 °FPassing clouds.9 mph78%30.21 "HgN/A
10:00 AM73 °FScattered clouds.7 mph78%30.24 "Hg6 mi
9:00 AM73 °FScattered clouds.3 mph74%30.21 "Hg6 mi
8:00 AM70 °FBroken clouds.5 mph83%30.21 "HgN/A
7:00 AM70 °FBroken clouds.No wind83%30.18 "HgN/A
Weather by CustomWeather, © 2014

See weather overviewHow to use our weather pages